Flag for Germany Weather past 2 weeks in Augsburg, Bavaria, Germany

Now
63 °F

Light rain. Clear.


Feels Like: 63 °F
Forecast: 54 / 70 °F
Wind: 8 mph from Southwest

Location: Augsburg Airport

Current Time: Aug 30, 2014 at 12:12:56 AM

Latest Report: Aug 29, 2014 at 11:50 PM


Visibility: N/A

Pressure: 30.09 "Hg

Humidity: 100%

Dew point: 63 °F

Location of AugsburgLocation

Historic Weather in Augsburg — Graph

°F

Augsburg temperature yesterday

Maximum temperature yesterday: 70 °F (at 3:20 PM)
Minimum temperature yesterday: 55 °F (at 6:50 AM)
Average temperature yesterday: 65 °F

Past Weeks' High & Low Weather Summary

 TemperatureHumidityPressure
High72 °F (Aug 28, 2:20 PM)100% (Aug 15, 5:20 PM)30.18 "Hg (Aug 15, 5:20 PM)
Low41 °F (Aug 25, 6:50 AM)35% (Aug 21, 5:20 PM)29.74 "Hg (Aug 26, 6:20 AM)
Average61 °F68%30.01 "Hg
* Reported Aug 15 10:20 AM — Aug 29 11:20 PM, Augsburg, Weather by CustomWeather, © 2014

Note: Actual official high and low records may vary slightly from our data, if they occured in-between our weather recording intervals... More about our weather records

Advertising

Augsburg weather history for previous 24 hours

 ConditionsComfort  
Time TempWeatherWind HumidityBarometerVisibility
11:20 PM
Aug 29
63 °FLight rain. Clear.3 mph100%30.09 "HgN/A
8:50 PM63 °FLight rain. Partly sunny.2 mph100%30.07 "HgN/A
8:20 PM64 °FSunny.2 mph100%30.07 "Hg10 mi
7:50 PM64 °FSunny.1 mph100%30.07 "Hg10 mi
7:20 PM66 °FSunny.2 mph83%30.07 "Hg10 mi
6:50 PM68 °FSunny.2 mph78%30.07 "Hg10 mi
6:20 PM68 °FPartly sunny.2 mph73%30.07 "HgN/A
5:50 PM68 °FLight rain. Scattered clouds.2 mph73%30.07 "HgN/A
5:20 PM68 °FPassing clouds.3 mph73%30.07 "HgN/A
4:50 PM68 °FLight rain. Passing clouds.5 mph73%30.07 "HgN/A
4:20 PM68 °FPartly sunny.3 mph69%30.07 "HgN/A
3:50 PM68 °FBroken clouds.6 mph69%30.09 "HgN/A
3:20 PM70 °FScattered clouds.2 mph64%30.09 "HgN/A
2:50 PM68 °FScattered clouds.2 mph73%30.09 "HgN/A
2:20 PM68 °FPartly sunny.2 mph69%30.09 "HgN/A
1:50 PM66 °FSunny.2 mph73%30.09 "Hg10 mi
1:20 PM64 °FPartly sunny.5 mph78%30.09 "HgN/A
12:50 PM64 °FDrizzle. Partly sunny.7 mph83%30.09 "HgN/A
12:20 PM66 °FLight rain. Partly sunny.9 mph68%30.09 "HgN/A
11:50 AM66 °FSunny.7 mph73%30.09 "Hg10 mi
11:20 AM66 °FSunny.5 mph73%30.09 "Hg10 mi
10:50 AM66 °FPassing clouds.3 mph73%30.07 "HgN/A
10:20 AM64 °FSunny.6 mph78%30.09 "Hg10 mi
9:50 AM64 °FPassing clouds.3 mph83%30.07 "HgN/A
9:20 AM64 °FSunny.2 mph83%30.09 "Hg10 mi
8:50 AM61 °FSunny.2 mph94%30.07 "Hg10 mi
8:20 AM59 °FSunny.3 mph94%30.07 "Hg10 mi
7:50 AM59 °FSunny.5 mph94%30.07 "Hg10 mi
7:20 AM55 °FClear.5 mph100%30.07 "Hg10 mi
6:50 AM55 °FClear.5 mph100%30.07 "Hg10 mi
Weather by CustomWeather, © 2014

See weather overviewHow to use our weather pages